Location: Arrodets-la-Barthe
(43.0306°N, 0.2829°E)
Time: 11:03:04
(UTC+00:00)

Iridium 4 Rocket - Pass Details

Date: 31 May 2022
Orbit: 585 x 902 km, 86.9° (Epoch: 01 July)

Event Time Altitude Azimuth Distance (km) Brightness Sun altitude
Rises 21:48:55 0° 5° (N) 3,060 7.5 -18.6°
Reaches altitude 10° 21:51:14 10° 13° (NNE) 2,187 6.5 -18.8°
Maximum altitude 21:55:52 41° 84° (E) 1,080 4.1 -19.3°
Enters shadow 21:57:17 34° 121° (ESE) 1,247 4.1 -19.4°
